Timation I

operational
NORAD ID: 2847 Int'l Des: 1967-053 Owner: NRL Country: US
LEOCIRCULAR

About Timation I

Description loading...

Live Position

Loading 3D Globe...

Upcoming Passes

Altitude History

Altitude vs Time

uPlot chart will show altitude changes over time

Two-Line Element Set

1 02847U 67053E 25314.75641707 .00000342 00000-0 25575-3 0 9990
2 02847 69.9648 320.3709 0007994 324.8375 35.2206 14.02866883983150
Epoch: Nov 10, 2025 • Age: 19 hours

Current Status

Altitude 894.3 km
Velocity 7.41 km/s
Sub-Earth Point 37.79°N, 133.27°W
Type other

Large Constellations

Loading constellations...